[[{"header":{"parameterUnit":"m.s-1","parameterCategory":2,"la1":30.2991,"la2":30.254,"lo1":-89.0895,"lo2":-89.0444,"dy":0.0017,"dx":0.0017,"nx":28,"ny":28,"refTime":"2024-05-27T09:00:00:Z","depth":"0","parameterNumber":2,"parameterNumberName":"U-component_of_CURRENTS"},"data":[0,0,0,0,0,0,0,0,0,0,0,0,0,0,0,0,0,0,0,0,0,0,0,0,0,0,0,0,0,0,0,0,0,0,0,0,0,0,0,0,0,0,0,0,0,0,0,0,0,0,0,0,0,0,0,0,0,0,0.2412,0.2412,0,0.2506,0.2507,0.2509,0.2548,0.2547,0.2547,0.2546,0.2691,0.2695,0.2699,0,0,0,0,0,0,0,0,0,0,0,0,0,0.2339,0.234,0.2412,0.2413,0.2414,0.2506,0.2508,0.2509,0.2548,0.2547,0.2547,0.2546,0.2689,0.2694,0.2699,0,0,0,0,0,0,0,0,0,0,0,0,0,0.2398,0.234,0.2411,0.2442,0.2446,0.2506,0.2508,0.2509,0.2548,0.2547,0.2546,0.2546,0.2688,0.2694,0.27,0.2752,0,0,0.272,0.2722,0,0,0,0,0,0,0,0,0.2394,0.2401,0.2437,0.244,0.2444,0.2512,0.2535,0.2592,0.2548,0.2512,0.2546,0.2546,0.2635,0.2645,0.2667,0.2759,0.2765,0.272,0.2724,0.2727,0.2728,0,0,0,0,0,0,0,0.239,0.2397,0.2451,0.2438,0.2442,0.2477,0.2484,0.2546,0.2578,0.2515,0.2517,0.2524,0.2637,0.2661,0.2671,0.2767,0.272,0.2726,0.273,0.2732,0.3034,0.3038,0,0,0,0,0,0,0.237,0.2393,0.2448,0.2454,0.2414,0.2478,0.2486,0.2493,0.2577,0.2588,0.2524,0.2525,0.265,0.2663,0.2676,0.2816,0.2727,0.2733,0.2736,0.303,0.3035,0.304,0,0,0,0,0,0,0.2369,0.2375,0.2445,0.2424,0.2435,0.2479,0.2487,0.2495,0.2523,0.2583,0.2595,0.2544,0.265,0.2667,0.2759,0.2818,0.2735,0.2741,0.3025,0.3032,0.3038,0.3048,0,0,0,0,0,0,0.2366,0.2373,0.2379,0.2422,0.2435,0.2495,0.2488,0.2497,0.2527,0.2529,0.2604,0.2616,0.2651,0.275,0.2766,0.2826,0.2746,0.302,0.3028,0.3036,0.3042,0.3054,0.3064,0,0,0,0,0,0.2363,0.2381,0.2378,0.2385,0.2438,0.2496,0.2507,0.2538,0.2528,0.2557,0.2612,0.2614,0.2812,0.2758,0.2775,0.2839,0.3016,0.3026,0.3035,0.3037,0.3051,0.3063,0,0,0,0,0,0,0.236,0.2387,0.2386,0.2411,0.2452,0.2502,0.2529,0.2541,0.2605,0.2609,0.2653,0.2672,0.2781,0.2817,0.2756,0.2958,0.2921,0.2935,0.2917,0.2931,0.2942,0.2921,0.2752,0,0,0,0,0,0.2356,0.2373,0.2408,0.2431,0.2448,0.2485,0.2511,0.2533,0.2588,0.2614,0.2666,0.2744,0.2836,0.2883,0.2963,0.306,0.3074,0.3123,0.3134,0.3142,0.3144,0.3224,0.324,0.3071,0.3071,0.3071,0,0,0.2359,0.2378,0.2387,0.2431,0.2461,0.2508,0.2501,0.2548,0.2601,0.2623,0.2715,0.2776,0.2872,0.2988,0.3042,0.3022,0.3199,0.3154,0.316,0.3157,0.3235,0.3251,0.3265,0.3077,0.3076,0.3075,0,0,0.2381,0.2392,0.2413,0.2448,0.2493,0.253,0.2541,0.2598,0.2637,0.2727,0.2772,0.2867,0.2987,0.3076,0.3135,0.3258,0.325,0.3291,0.3327,0.3405,0.3418,0.3429,0.3449,0.3462,0.3299,0.3299,0.3299,0,0.2383,0.2411,0.2433,0.2468,0.2503,0.2538,0.2583,0.264,0.2724,0.2772,0.2764,0.297,0.3038,0.3196,0.3243,0.3279,0.3294,0.3256,0.3412,0.3424,0.3436,0.3453,0.3467,0.33,0.33,0.33,0.33,0,0.2421,0.2447,0.2469,0.2522,0.257,0.2617,0.2687,0.2748,0.279,0.2845,0.2987,0.3081,0.3198,0.3253,0.3283,0.3423,0.3395,0.3405,0.3358,0.3452,0.3466,0.348,0.3303,0.3302,0.3302,0.3301,0,0,0.2416,0.2479,0.2486,0.2513,0.26,0.2643,0.2745,0.2847,0.291,0.3003,0.3097,0.3263,0.3286,0.3357,0.3416,0.3489,0.3577,0.3475,0.3478,0.3455,0.3702,0.3508,0.3504,0.36,0.3603,0.3606,0.3669,0,0.2439,0.2495,0.2536,0.2613,0.265,0.2722,0.2812,0.2912,0.2996,0.3097,0.321,0.3321,0.3338,0.3389,0.3471,0.3558,0.362,0.3556,0.3649,0.3651,0.3436,0.3518,0.3328,0.3353,0.3683,0.3685,0.3687,0,0.2461,0.2497,0.2557,0.2646,0.2671,0.2728,0.2863,0.2949,0.3102,0.3165,0.3283,0.3355,0.3501,0.3486,0.3658,0.3609,0.3657,0.3707,0.3711,0.3534,0.3485,0.3324,0.3366,0.3301,0.3709,0.3707,0.3705,0,0.2435,0.2516,0.256,0.259,0.2698,0.2747,0.2819,0.2964,0.3048,0.3201,0.3272,0.3426,0.351,0.3609,0.3702,0.3687,0.3854,0.385,0.3722,0.3708,0.3566,0.3532,0.3522,0.3969,0.3968,0.3968,0.3968,0,0.2441,0.2477,0.2542,0.2564,0.2631,0.2718,0.2816,0.2907,0.3053,0.3161,0.3291,0.3396,0.3546,0.3655,0.3721,0.3744,0.3872,0.373,0.3721,0.3562,0.3528,0.3479,0.3453,0.3971,0.397,0.397,0.3969,0,0.2404,0.2447,0.2494,0.2584,0.2612,0.2657,0.2789,0.2868,0.3004,0.3148,0.3199,0.3391,0.3513,0.3632,0.3788,0.3747,0.3678,0.3789,0.355,0.3509,0.3245,0.3227,0.3059,0.2984,0.363,0.3626,0.3622,0,0.2389,0.2405,0.2478,0.25,0.2534,0.2611,0.2676,0.2822,0.291,0.3145,0.321,0.3371,0.3465,0.3576,0.3554,0.3583,0.356,0.3388,0.3322,0.3196,0.3175,0.3064,0.3009,0.3154,0.3147,0.3141,0.3136,0,0.2356,0.2376,0.2407,0.2443,0.2493,0.2563,0.266,0.2724,0.2913,0.303,0.3179,0.3264,0.3344,0.3264,0.3255,0.3257,0.3164,0.3259,0.3237,0.2871,0.265,0.2584,0.3122,0.3084,0.3089,0.3093,0.3096,0.3098,0.232,0.2323,0.2352,0.2382,0.2438,0.25,0.2534,0.2648,0.276,0.2894,0.3039,0.3075,0.3034,0.2975,0.295,0.2734,0.2793,0.263,0.2642,0.2561,0.2396,0.2759,0.2633,0.2636,0.2638,0.264,0.2642,0,0.2262,0.227,0.2295,0.2325,0.2348,0.2409,0.2511,0.2528,0.2604,0.2706,0.278,0.2696,0.2571,0.2531,0.2319,0.2166,0.2103,0.2106,0.1983,0.1985,0.2418,0.2304,0.1967,0.1967,0.1968,0.1968,0.1968,0.1968,0.2233,0.2216,0.2221,0.2216,0.2244,0.2258,0.2294,0.2328,0.2374,0.2337,0.227,0.2263,0.2241,0.2069,0.1873,0.181,0.1725,0.1537,0.1637,0.2018,0.2071,0.2121,0.2012,0.162,0.1619,0.1109,0.1105,0.1103]},{"header":{"parameterUnit":"m.s-1","parameterCategory":2,"la1":30.2991,"la2":30.254,"lo1":-89.0895,"lo2":-89.0444,"dy":0.0017,"dx":0.0017,"nx":28,"ny":28,"refTime":"2024-05-27T09:00:00:Z","depth":"0","parameterNumber":3,"parameterNumberName":"V-component_of_CURRENTS"},"data":[0,0,0,0,0,0,0,0,0,0,0,0,0,0,0,0,0,0,0,0,0,0,0,0,0,0,0,0,0,0,0,0,0,0,0,0,0,0,0,0,0,0,0,0,0,0,0,0,0,0,0,0,0,0,0,0,0,0,0.0094,0.0093,0,0.0026,0.0025,0.0024,-0.0016,-0.0016,-0.0016,-0.0016,-0.0128,-0.0131,-0.0134,0,0,0,0,0,0,0,0,0,0,0,0,0,0.0129,0.0128,0.0094,0.0093,0.0093,0.0027,0.0025,0.0024,-0.0016,-0.0016,-0.0016,-0.0016,-0.0127,-0.0131,-0.0135,0,0,0,0,0,0,0,0,0,0,0,0,0,0.009,0.0128,0.0094,0.0067,0.0064,0.0027,0.0025,0.0024,-0.0016,-0.0016,-0.0016,-0.0016,-0.0126,-0.0131,-0.0135,-0.0165,0,0,-0.0149,-0.0151,0,0,0,0,0,0,0,0,0.0093,0.0089,0.0071,0.0068,0.0065,0.0016,-0.0004,-0.0041,-0.0016,0.0011,-0.0016,-0.0016,-0.0083,-0.0091,-0.0107,-0.017,-0.0175,-0.0149,-0.0152,-0.0154,-0.0155,0,0,0,0,0,0,0,0.0095,0.0091,0.0064,0.0071,0.0067,0.0037,0.0032,-0.0011,-0.0038,0.0009,0.0007,0.0003,-0.0085,-0.0102,-0.011,-0.0177,-0.0149,-0.0153,-0.0156,-0.0158,-0.0302,-0.0303,0,0,0,0,0,0,0.0112,0.0094,0.0067,0.0063,0.0082,0.0037,0.0031,0.003,-0.0037,-0.0046,0.0003,0.0002,-0.0094,-0.0104,-0.0114,-0.0144,-0.0154,-0.0158,-0.0161,-0.0301,-0.0302,-0.0303,0,0,0,0,0,0,0.0113,0.011,0.0069,0.0079,0.0072,0.0037,0.0035,0.0028,0.0015,-0.004,-0.005,-0.0002,-0.0095,-0.0107,-0.0151,-0.0149,-0.016,-0.0165,-0.0299,-0.0301,-0.0303,-0.021,0,0,0,0,0,0,0.0114,0.0111,0.0113,0.008,0.0072,0.0055,0.0035,0.0027,0.0013,0.0011,-0.0049,-0.0059,-0.0096,-0.0144,-0.0155,-0.0155,-0.0168,-0.0298,-0.03,-0.0302,-0.0212,-0.0209,-0.0206,0,0,0,0,0,0.0116,0.0122,0.0113,0.011,0.0077,0.0056,0.0049,0.0022,0.0013,0.0009,-0.0033,-0.0057,-0.0165,-0.0148,-0.0161,-0.0163,-0.0297,-0.03,-0.0302,-0.0213,-0.0209,-0.0206,0,0,0,0,0,0,0.0135,0.0117,0.0107,0.0107,0.0087,0.005,0.0045,0.0027,-0.0009,-0.0011,-0.0064,-0.0078,-0.0116,-0.0161,-0.014,-0.0216,-0.0238,-0.0244,-0.0167,-0.0163,-0.016,-0.011,-0.0172,0,0,0,0,0,0.0142,0.0143,0.0118,0.0118,0.0112,0.0079,0.0067,0.0051,0.0017,0.0002,-0.004,-0.0093,-0.0139,-0.0165,-0.0212,-0.025,-0.0242,-0.0267,-0.0263,-0.026,-0.0232,-0.0225,-0.0217,-0.0311,-0.0311,-0.0311,0,0,0.0149,0.014,0.014,0.0122,0.0105,0.0102,0.0072,0.0061,0.0059,-0.0006,-0.0027,-0.0078,-0.0147,-0.0186,-0.0208,-0.022,-0.0228,-0.0263,-0.0259,-0.0233,-0.0227,-0.0217,-0.0208,-0.0313,-0.0312,-0.0312,0,0,0.017,0.0158,0.0169,0.0157,0.0141,0.0121,0.0123,0.009,0.0075,0.0046,-0.0001,-0.0042,-0.0121,-0.0159,-0.0191,-0.0203,-0.0208,-0.0237,-0.0178,-0.0172,-0.0163,-0.0154,-0.0109,-0.0098,-0.0238,-0.0238,-0.0237,0,0.018,0.0191,0.0167,0.0175,0.0174,0.0136,0.0148,0.0125,0.0082,0.0077,0.005,-0.0039,-0.0101,-0.0132,-0.0143,-0.0189,-0.0174,-0.0179,-0.0161,-0.0153,-0.0146,-0.0102,-0.009,-0.0233,-0.0234,-0.0234,-0.0235,0,0.021,0.0218,0.0225,0.0225,0.0217,0.0222,0.0195,0.0185,0.0161,0.0137,0.0108,0.0033,-0.0013,-0.0055,-0.0104,-0.0098,-0.0098,-0.0148,-0.0153,-0.0129,-0.0087,-0.0076,-0.0228,-0.0229,-0.023,-0.0231,0,0,0.024,0.0246,0.025,0.0265,0.0249,0.025,0.0249,0.0241,0.0256,0.0205,0.0224,0.013,0.0102,0.0063,-0.0002,-0.0009,0.0046,-0.0052,-0.0054,0.0027,0.01,0.0095,0.0106,0.0003,0.0005,0.0006,0.012,0,0.0274,0.0308,0.0298,0.033,0.0347,0.0322,0.0329,0.0316,0.0296,0.0301,0.0242,0.0225,0.0142,0.0128,0.011,0.0054,0.0075,0.0023,0.0036,0.0038,0.0057,0.0118,0.0142,0.0244,0.0131,0.0132,0.0134,0,0.0312,0.0332,0.0374,0.0398,0.0404,0.0417,0.0437,0.0438,0.0428,0.0417,0.0399,0.0355,0.0334,0.0262,0.0234,0.0207,0.0175,0.0139,0.0141,0.0117,0.0052,0.0192,0.0267,0.0209,0.015,0.0149,0.0148,0,0.0358,0.0388,0.0429,0.0435,0.0451,0.0472,0.0481,0.0478,0.05,0.0505,0.0534,0.0487,0.0494,0.0435,0.0353,0.0302,0.0347,0.0259,0.0243,0.0243,0.0258,0.0256,0.0308,0.0278,0.0278,0.0278,0.0277,0,0.0403,0.0436,0.0459,0.0482,0.0539,0.0529,0.0588,0.0587,0.0613,0.0673,0.0607,0.0663,0.0539,0.0534,0.0435,0.0396,0.0418,0.0294,0.0277,0.0288,0.0288,0.0229,0.0172,0.0282,0.0281,0.028,0.0279,0,0.0446,0.0459,0.051,0.0545,0.0564,0.0605,0.0662,0.0704,0.0723,0.0809,0.0826,0.0821,0.0822,0.0714,0.0644,0.0528,0.0444,0.0448,0.0491,0.0475,0.0357,0.0304,0.0359,0.0342,0.0446,0.0447,0.0447,0,0.047,0.0502,0.0562,0.0601,0.0623,0.0683,0.0731,0.0757,0.0815,0.0921,0.098,0.1014,0.1062,0.0966,0.0774,0.0647,0.0542,0.0563,0.0445,0.0397,0.0325,0.0289,0.0268,0.0517,0.0518,0.0519,0.052,0,0.0517,0.0539,0.0581,0.0665,0.0726,0.0797,0.0873,0.094,0.1005,0.1108,0.1248,0.1305,0.1222,0.1111,0.0914,0.0789,0.0528,0.0575,0.0513,0.0393,0.0373,0.0333,0.0418,0.0527,0.0526,0.0526,0.0526,0.0525,0.0554,0.0593,0.0653,0.0733,0.0805,0.0909,0.0991,0.1102,0.1244,0.1417,0.1449,0.1571,0.1383,0.1117,0.0947,0.0635,0.0607,0.0517,0.0468,0.0446,0.0396,0.0516,0.0592,0.0592,0.0591,0.0591,0.0591,0,0.0596,0.0643,0.0718,0.0817,0.0904,0.0938,0.1085,0.1193,0.1399,0.1565,0.1704,0.1694,0.1479,0.1192,0.0777,0.0567,0.0474,0.0454,0.041,0.0396,0.0508,0.0474,0.0541,0.0541,0.0541,0.0541,0.0541,0.0542,0.0621,0.0696,0.0735,0.0884,0.0959,0.1098,0.1194,0.1385,0.1535,0.1762,0.1853,0.1889,0.1688,0.1011,0.059,0.0484,0.0353,0.0323,0.0261,0.0318,0.0319,0.0321,0.0276,0.0302,0.0301,0.0185,0.0183,0.0182]}],[{"header":{"parameterUnit":"m.s-1","parameterCategory":2,"la1":30.2991,"la2":30.254,"lo1":-89.0895,"lo2":-89.0444,"dy":0.0017,"dx":0.0017,"nx":28,"ny":28,"refTime":"2024-05-27T09:00:00:Z","depth":"2","parameterNumber":2,"parameterNumberName":"U-component_of_CURRENTS"},"data":[0,0,0,0,0,0,0,0,0,0,0,0,0,0,0,0,0,0,0,0,0,0,0,0,0,0,0,0,0,0,0,0,0,0,0,0,0,0,0,0,0,0,0,0,0,0,0,0,0,0,0,0,0,0,0,0,0,0,0.2016,0.2016,0,0.2037,0.2037,0.2037,0.2035,0.2035,0.2035,0.2035,0.2063,0.2064,0.2064,0,0,0,0,0,0,0,0,0,0,0,0,0,0.1991,0.1991,0.2015,0.2016,0.2017,0.2037,0.2037,0.2037,0.2035,0.2035,0.2035,0.2035,0.2063,0.2064,0.2065,0,0,0,0,0,0,0,0,0,0,0,0,0,0.2003,0.1991,0.2015,0.202,0.2021,0.2037,0.2037,0.2037,0.2035,0.2035,0.2035,0.2035,0.2062,0.2063,0.2065,0.2075,0,0,0.2068,0.2069,0,0,0,0,0,0,0,0,0.2002,0.2004,0.2019,0.202,0.2021,0.2036,0.2039,0.2051,0.2035,0.2027,0.2035,0.2035,0.2056,0.2058,0.2058,0.2076,0.2077,0.2069,0.2069,0.207,0.207,0,0,0,0,0,0,0,0.2001,0.2003,0.2021,0.2019,0.2021,0.2027,0.2028,0.2041,0.204,0.2028,0.2028,0.2035,0.2056,0.2057,0.2059,0.2078,0.2068,0.207,0.207,0.2071,0.2222,0.2225,0,0,0,0,0,0,0.2003,0.2002,0.2021,0.2022,0.2014,0.2028,0.2029,0.2029,0.204,0.2042,0.2035,0.2035,0.2055,0.2058,0.206,0.2145,0.207,0.2071,0.2072,0.2219,0.2223,0.2227,0,0,0,0,0,0,0.2003,0.2005,0.202,0.2015,0.2018,0.2029,0.2028,0.2029,0.2038,0.2046,0.2048,0.2044,0.2055,0.2058,0.2105,0.2144,0.2072,0.2073,0.2215,0.222,0.2225,0.227,0,0,0,0,0,0,0.2002,0.2004,0.2009,0.2015,0.2018,0.204,0.2029,0.203,0.2043,0.2043,0.2054,0.2056,0.2055,0.2104,0.2107,0.2144,0.2074,0.2211,0.2217,0.2223,0.2264,0.2276,0.2285,0,0,0,0,0,0.2001,0.201,0.2008,0.2011,0.2022,0.2041,0.2043,0.2048,0.2044,0.2054,0.2079,0.2056,0.2145,0.2107,0.211,0.2148,0.2208,0.2216,0.2223,0.2259,0.2273,0.2285,0,0,0,0,0,0,0.2003,0.2011,0.2009,0.202,0.2034,0.2041,0.2055,0.2055,0.2079,0.2087,0.2086,0.2091,0.2153,0.2152,0.211,0.2218,0.2178,0.2186,0.2205,0.2218,0.2228,0.2208,0.2075,0,0,0,0,0,0.2006,0.2013,0.2023,0.2033,0.2041,0.2048,0.2057,0.2064,0.2085,0.2094,0.2108,0.214,0.2185,0.22,0.2235,0.2278,0.2282,0.2314,0.2325,0.2333,0.2324,0.2354,0.2365,0.2251,0.2251,0.2251,0,0,0.2009,0.2016,0.202,0.2035,0.2044,0.2063,0.2053,0.2077,0.2098,0.2095,0.2138,0.2176,0.2209,0.2272,0.2299,0.2272,0.2382,0.2343,0.2349,0.2335,0.2363,0.2373,0.2383,0.2256,0.2255,0.2254,0,0,0.2023,0.2028,0.2038,0.2051,0.2074,0.2085,0.2094,0.2115,0.213,0.2177,0.2199,0.226,0.2305,0.2346,0.237,0.2461,0.2441,0.2482,0.2506,0.2536,0.2544,0.2551,0.2613,0.2625,0.2479,0.248,0.248,0,0.2029,0.2037,0.2046,0.2063,0.2078,0.2096,0.2115,0.2137,0.2175,0.2205,0.2201,0.2321,0.2341,0.2431,0.2465,0.2481,0.2499,0.2445,0.2544,0.2551,0.2558,0.2619,0.2631,0.2483,0.2482,0.2482,0.2482,0,0.2044,0.2057,0.2069,0.2092,0.2113,0.2136,0.2167,0.2208,0.2233,0.2258,0.2353,0.24,0.2474,0.2499,0.2501,0.258,0.2583,0.2555,0.2497,0.2571,0.2633,0.2645,0.2487,0.2486,0.2485,0.2484,0,0,0.204,0.2071,0.2075,0.2088,0.213,0.2148,0.2207,0.2262,0.2306,0.2363,0.2428,0.2516,0.2551,0.2583,0.2616,0.2629,0.2703,0.2604,0.2604,0.264,0.2793,0.2635,0.2633,0.2678,0.268,0.2681,0.2832,0,0.2049,0.2074,0.2094,0.2131,0.2146,0.2194,0.2242,0.2302,0.2354,0.2426,0.2499,0.257,0.2582,0.2625,0.2657,0.2702,0.273,0.2666,0.2738,0.2741,0.2568,0.2639,0.2409,0.2507,0.2844,0.2846,0.2847,0,0.2052,0.2069,0.2096,0.2146,0.216,0.2193,0.2282,0.2329,0.2437,0.2484,0.2583,0.263,0.2736,0.2691,0.2819,0.2777,0.2787,0.2794,0.28,0.2632,0.2602,0.2483,0.2516,0.2867,0.2865,0.2864,0.2863,0,0.203,0.2072,0.2091,0.2106,0.2168,0.2207,0.2255,0.2351,0.2399,0.2522,0.2577,0.2707,0.2778,0.2827,0.2862,0.2852,0.2942,0.2942,0.2818,0.2811,0.2616,0.2585,0.2981,0.2981,0.2981,0.298,0.298,0,0.2021,0.2039,0.2083,0.2093,0.2134,0.2191,0.2257,0.2329,0.2433,0.2497,0.2607,0.2676,0.2797,0.2862,0.2892,0.2896,0.2989,0.283,0.2827,0.2631,0.2601,0.2896,0.2884,0.2986,0.2985,0.2984,0.2983,0,0.1989,0.2016,0.2039,0.2099,0.2119,0.2152,0.2239,0.229,0.2397,0.2492,0.2531,0.2681,0.2774,0.2854,0.2935,0.2917,0.2934,0.2886,0.2657,0.262,0.2797,0.2787,0.2837,0.2832,0.2828,0.2825,0.2822,0,0.1971,0.1978,0.2026,0.2038,0.2063,0.2118,0.2157,0.2263,0.2315,0.2479,0.2517,0.2632,0.2684,0.2767,0.2746,0.2777,0.2839,0.2541,0.2455,0.2784,0.2778,0.2774,0.2769,0.2269,0.2262,0.2256,0.2251,0,0.1938,0.1955,0.1972,0.1992,0.2023,0.2055,0.2119,0.2152,0.2283,0.2339,0.2413,0.2456,0.2542,0.2452,0.2453,0.2437,0.2527,0.242,0.2835,0.2299,0.2248,0.2241,0.2256,0.22,0.2205,0.2209,0.2212,0.2214,0.191,0.1908,0.1926,0.1938,0.1966,0.1978,0.1977,0.2039,0.2073,0.2139,0.2244,0.2235,0.226,0.2157,0.208,0.2028,0.2221,0.2122,0.2141,0.2166,0.2031,0.197,0.1851,0.1854,0.1856,0.1859,0.1861,0,0.1859,0.1861,0.1871,0.1867,0.1854,0.1902,0.1933,0.1896,0.1878,0.1958,0.1975,0.1803,0.1723,0.1761,0.16,0.1573,0.1586,0.1502,0.151,0.1561,0.1607,0.1444,0.1108,0.1106,0.1104,0.1102,0,0,0.1834,0.1809,0.1803,0.1747,0.1749,0.1698,0.1692,0.1646,0.1656,0.1597,0.1574,0.1698,0.1723,0.1421,0.1351,0.1206,0.1385,0.1151,0.1754,0.1818,0.1861,0.1958,0.1763,0,0,0,0,0]},{"header":{"parameterUnit":"m.s-1","parameterCategory":2,"la1":30.2991,"la2":30.254,"lo1":-89.0895,"lo2":-89.0444,"dy":0.0017,"dx":0.0017,"nx":28,"ny":28,"refTime":"2024-05-27T09:00:00:Z","depth":"2","parameterNumber":3,"parameterNumberName":"V-component_of_CURRENTS"},"data":[0,0,0,0,0,0,0,0,0,0,0,0,0,0,0,0,0,0,0,0,0,0,0,0,0,0,0,0,0,0,0,0,0,0,0,0,0,0,0,0,0,0,0,0,0,0,0,0,0,0,0,0,0,0,0,0,0,0,0.0093,0.0093,0,0.005,0.005,0.0049,0.0017,0.0017,0.0016,0.0016,-0.0031,-0.0032,-0.0033,0,0,0,0,0,0,0,0,0,0,0,0,0,0.0113,0.0113,0.0093,0.0093,0.0092,0.005,0.005,0.0049,0.0017,0.0017,0.0016,0.0016,-0.0031,-0.0032,-0.0033,0,0,0,0,0,0,0,0,0,0,0,0,0,0.0091,0.0113,0.0093,0.0071,0.0069,0.0051,0.005,0.0049,0.0017,0.0017,0.0016,0.0016,-0.003,-0.0032,-0.0033,-0.0035,0,0,-0.0038,-0.0039,0,0,0,0,0,0,0,0,0.0092,0.009,0.0075,0.0073,0.007,0.0039,0.004,0.0021,0.0017,0.0036,0.0016,0.0016,-0.0007,-0.0011,-0.0019,-0.0037,-0.0039,-0.0038,-0.0039,-0.004,-0.004,0,0,0,0,0,0,0,0.0094,0.0091,0.0076,0.0075,0.0072,0.0052,0.0049,0.0036,0.0017,0.0035,0.0032,0.0028,-0.0009,-0.0017,-0.002,-0.004,-0.0038,-0.0039,-0.004,-0.0041,-0.0081,-0.0081,0,0,0,0,0,0,0.0102,0.0093,0.0077,0.0075,0.0081,0.0052,0.0048,0.0049,0.0017,0.0012,0.0029,0.0027,-0.0014,-0.0018,-0.0022,-0.0015,-0.004,-0.0041,-0.0042,-0.0081,-0.0081,-0.0081,0,0,0,0,0,0,0.0103,0.0101,0.0079,0.0083,0.0079,0.0053,0.0053,0.0048,0.0041,0.0013,0.0007,0.0027,-0.0015,-0.002,-0.0032,-0.0018,-0.0042,-0.0043,-0.0081,-0.0081,-0.0081,-0.0009,0,0,0,0,0,0,0.0104,0.0102,0.0105,0.0084,0.0079,0.0074,0.0054,0.0048,0.0039,0.0037,0.0009,0.0004,-0.0015,-0.003,-0.0034,-0.002,-0.0044,-0.0081,-0.0081,-0.0081,-0.0011,-0.0007,-0.0003,0,0,0,0,0,0.0105,0.0114,0.0106,0.0104,0.0085,0.0075,0.0071,0.005,0.004,0.0041,0.002,0.0005,-0.0035,-0.0031,-0.0035,-0.0022,-0.0081,-0.0081,-0.0081,-0.0013,-0.0008,-0.0003,0,0,0,0,0,0,0.0122,0.011,0.0102,0.0106,0.0094,0.007,0.007,0.0055,0.0039,0.0037,0.0008,0.0002,-0.0006,-0.0029,-0.0023,-0.0039,-0.0062,-0.0063,-0.0009,-0.0004,0.0,0.004,-0.0046,0,0,0,0,0,0.0129,0.0134,0.0116,0.012,0.0117,0.0094,0.0087,0.0075,0.0057,0.005,0.0028,0.0004,-0.0011,-0.0018,-0.0039,-0.0042,-0.0047,-0.004,-0.0036,-0.0032,-0.0005,0.0002,0.0011,-0.0083,-0.0083,-0.0083,0,0,0.0136,0.0131,0.0133,0.0125,0.0114,0.0119,0.0089,0.0086,0.0093,0.0048,0.0049,0.0019,-0.001,-0.0015,-0.0021,-0.0031,-0.0015,-0.0033,-0.0029,-0.0003,0.0003,0.0012,0.0021,-0.0083,-0.0083,-0.0083,0,0,0.0157,0.0151,0.0163,0.0158,0.0148,0.0138,0.0139,0.0118,0.0113,0.0106,0.0077,0.0066,0.003,0.0025,0.0015,0.003,0.0006,0.0005,0.0065,0.0071,0.008,0.0088,0.0075,0.0081,0.0009,0.0009,0.001,0,0.0166,0.0181,0.0164,0.0176,0.0179,0.0151,0.0167,0.016,0.0137,0.0141,0.0115,0.0083,0.006,0.0071,0.0074,0.0046,0.0033,0.0053,0.0081,0.0088,0.0095,0.008,0.0086,0.0013,0.0013,0.0012,0.0012,0,0.0197,0.0209,0.0217,0.0226,0.0227,0.0236,0.0227,0.0226,0.0211,0.0201,0.0201,0.0168,0.0152,0.0136,0.0114,0.0143,0.0111,0.0087,0.0078,0.011,0.009,0.0096,0.0018,0.0017,0.0016,0.0015,0,0,0.0219,0.0236,0.024,0.0257,0.0257,0.0264,0.0281,0.0291,0.0313,0.0283,0.031,0.0283,0.026,0.0248,0.0213,0.0224,0.0252,0.0181,0.018,0.0187,0.0251,0.0228,0.0231,0.0229,0.0231,0.0232,0.0212,0,0.025,0.0287,0.0287,0.0326,0.0346,0.0335,0.0358,0.0363,0.0359,0.0375,0.0352,0.0357,0.0303,0.03,0.0301,0.0264,0.0271,0.0259,0.0204,0.0203,0.0195,0.0239,0.025,0.0234,0.0217,0.0218,0.0218,0,0.0285,0.0307,0.0352,0.0387,0.0396,0.0416,0.0453,0.0469,0.0483,0.048,0.0477,0.0451,0.0457,0.0409,0.0378,0.0367,0.0325,0.0296,0.0294,0.0261,0.0191,0.0201,0.0244,0.0226,0.0225,0.0225,0.0224,0,0.0319,0.0356,0.0397,0.0408,0.0439,0.0463,0.0482,0.0502,0.0536,0.0554,0.058,0.0554,0.0561,0.0507,0.0432,0.0407,0.04,0.0351,0.0292,0.0287,0.0285,0.0278,0.0352,0.0352,0.0353,0.0353,0.0353,0,0.0357,0.039,0.0419,0.0443,0.0501,0.0507,0.0571,0.0582,0.0622,0.0685,0.064,0.0684,0.0591,0.0563,0.0475,0.0402,0.0426,0.0327,0.0297,0.0305,0.0301,0.0283,0.0275,0.0352,0.0352,0.0352,0.0352,0,0.0389,0.0406,0.0457,0.05,0.052,0.0561,0.0629,0.0678,0.0705,0.0788,0.0804,0.0794,0.0756,0.0649,0.0571,0.0471,0.0394,0.0362,0.0368,0.034,0.026,0.0256,0.0293,0.0293,0.0292,0.0292,0.0291,0,0.0409,0.0439,0.05,0.0536,0.0559,0.0622,0.0674,0.0716,0.0778,0.0865,0.0916,0.0907,0.0909,0.0762,0.0602,0.0447,0.0415,0.0343,0.0308,0.0296,0.0262,0.0259,0.0255,0.0318,0.0317,0.0317,0.0317,0,0.0448,0.0468,0.051,0.0586,0.0645,0.0718,0.0797,0.0863,0.0936,0.1007,0.1096,0.1105,0.0979,0.0831,0.0612,0.0499,0.0361,0.0335,0.0346,0.0329,0.0317,0.0284,0.028,0.0316,0.0317,0.0317,0.0317,0.0317,0.0477,0.0511,0.0568,0.064,0.0711,0.081,0.0887,0.0983,0.1096,0.1208,0.1213,0.1222,0.1052,0.0775,0.058,0.0367,0.0383,0.0287,0.0288,0.0289,0.0295,0.0282,0.0275,0.0275,0.0275,0.0274,0.0274,0,0.0511,0.0551,0.0619,0.0709,0.0789,0.0826,0.0967,0.1051,0.1194,0.1273,0.1332,0.1164,0.1001,0.0791,0.0492,0.031,0.0288,0.0229,0.0246,0.025,0.0252,0.0255,0.0224,0.0224,0.0223,0.0222,0,0,0.0529,0.0593,0.0626,0.0757,0.0827,0.0952,0.104,0.1169,0.1255,0.1326,0.1325,0.1305,0.107,0.0831,0.0589,0.0411,0.0364,0.0362,0.0426,0.048,0.0484,0.0312,0.0324,0,0,0,0,0]}],[{"header":{"parameterUnit":"m.s-1","parameterCategory":2,"la1":30.2991,"la2":30.254,"lo1":-89.0895,"lo2":-89.0444,"dy":0.0017,"dx":0.0017,"nx":28,"ny":28,"refTime":"2024-05-27T09:00:00:Z","depth":"4","parameterNumber":2,"parameterNumberName":"U-component_of_CURRENTS"},"data":[0,0,0,0,0,0,0,0,0,0,0,0,0,0,0,0,0,0,0,0,0,0,0,0,0,0,0,0,0,0,0,0,0,0,0,0,0,0,0,0,0,0,0,0,0,0,0,0,0,0,0,0,0,0,0,0,0,0,0.1297,0.1298,0,0.1275,0.1274,0.1274,0.1259,0.126,0.126,0.126,0.1202,0.12,0.1199,0,0,0,0,0,0,0,0,0,0,0,0,0,0.129,0.129,0.1297,0.1298,0.1298,0.1275,0.1274,0.1273,0.1259,0.126,0.126,0.1261,0.1203,0.1201,0.1198,0,0,0,0,0,0,0,0,0,0,0,0,0,0.1278,0.129,0.1297,0.1292,0.1291,0.1275,0.1274,0.1273,0.1259,0.126,0.126,0.1261,0.1204,0.1201,0.1198,0.1168,0,0,0.1189,0.1188,0,0,0,0,0,0,0,0,0.1278,0.1277,0.1292,0.1292,0.1292,0.1275,0.125,0.1238,0.1259,0.1266,0.126,0.1261,0.1226,0.1222,0.1209,0.1166,0.1163,0.1189,0.1187,0.1186,0.1185,0,0,0,0,0,0,0,0.1279,0.1278,0.1283,0.1293,0.1292,0.1278,0.1276,0.1248,0.1238,0.1265,0.1266,0.1271,0.1225,0.1212,0.1208,0.1162,0.1189,0.1187,0.1185,0.1184,0.1151,0.1151,0,0,0,0,0,0,0.1294,0.1279,0.1284,0.1283,0.1292,0.1278,0.1276,0.1276,0.1239,0.1236,0.1271,0.1271,0.1217,0.1211,0.1206,0.1231,0.1186,0.1183,0.1182,0.115,0.1151,0.1152,0,0,0,0,0,0,0.1294,0.1294,0.1285,0.1285,0.1284,0.1278,0.1277,0.1275,0.1291,0.1245,0.124,0.1293,0.1217,0.121,0.1187,0.1227,0.1182,0.1179,0.1149,0.115,0.1151,0.1243,0,0,0,0,0,0,0.1293,0.1294,0.1309,0.1286,0.1284,0.1293,0.1277,0.1274,0.1294,0.1294,0.1262,0.1255,0.1217,0.1191,0.1184,0.1222,0.1177,0.1148,0.1149,0.1151,0.1238,0.1247,0.1254,0,0,0,0,0,0.1293,0.1304,0.131,0.1311,0.1301,0.1295,0.1292,0.1286,0.1295,0.1303,0.1272,0.1258,0.1197,0.1189,0.118,0.1219,0.1147,0.1149,0.1151,0.1235,0.1245,0.1254,0,0,0,0,0,0,0.1306,0.1304,0.1309,0.132,0.132,0.1295,0.1308,0.1307,0.129,0.1297,0.1253,0.1243,0.1246,0.1212,0.1205,0.1213,0.1176,0.1177,0.1244,0.1253,0.126,0.1301,0.1175,0,0,0,0,0,0.1318,0.133,0.1323,0.1336,0.1342,0.1333,0.1337,0.1335,0.1315,0.1311,0.1289,0.1264,0.1242,0.1232,0.1206,0.12,0.1201,0.1223,0.1231,0.1237,0.1264,0.1283,0.1296,0.1158,0.1158,0.1158,0,0,0.1328,0.1331,0.1338,0.1342,0.1343,0.1344,0.1336,0.1352,0.1353,0.1305,0.1307,0.1292,0.1247,0.1243,0.1242,0.1222,0.1278,0.124,0.1246,0.127,0.1287,0.13,0.1312,0.1159,0.1159,0.1159,0,0,0.1342,0.1358,0.1369,0.1373,0.1388,0.1377,0.1392,0.1387,0.139,0.1386,0.1359,0.1366,0.1326,0.1308,0.129,0.1325,0.1321,0.1327,0.1396,0.1414,0.1426,0.1437,0.1464,0.1476,0.1327,0.1328,0.1328,0,0.1358,0.1364,0.1372,0.1381,0.1388,0.1397,0.1404,0.1403,0.1393,0.1396,0.14,0.1387,0.1359,0.1357,0.138,0.1346,0.1362,0.1364,0.1427,0.1437,0.1447,0.1472,0.1484,0.1332,0.1332,0.1331,0.1331,0,0.1364,0.1383,0.1393,0.1403,0.1411,0.1424,0.1425,0.1441,0.1457,0.1453,0.1481,0.146,0.1453,0.1458,0.1433,0.1489,0.1482,0.1439,0.1409,0.1467,0.1489,0.15,0.1339,0.1337,0.1336,0.1335,0,0,0.136,0.1391,0.1397,0.1407,0.1427,0.1426,0.1446,0.1453,0.147,0.1498,0.1521,0.1533,0.1556,0.154,0.1529,0.1567,0.1654,0.1553,0.1552,0.1594,0.1719,0.1591,0.1591,0.163,0.1633,0.1635,0.1711,0,0.1364,0.1384,0.1397,0.1416,0.1423,0.1443,0.1452,0.1467,0.1488,0.1511,0.1539,0.1558,0.1572,0.1594,0.1636,0.1639,0.1689,0.1639,0.1647,0.1648,0.1537,0.1601,0.1642,0.172,0.1722,0.1724,0.1726,0,0.1354,0.1372,0.1394,0.1419,0.1425,0.1442,0.1469,0.1481,0.1515,0.1542,0.1594,0.1604,0.1671,0.1672,0.1754,0.1727,0.1752,0.1766,0.1767,0.1627,0.1541,0.1646,0.1746,0.1744,0.1743,0.1742,0.174,0,0.1327,0.1363,0.1383,0.1393,0.1423,0.1447,0.1467,0.1498,0.1513,0.1579,0.161,0.167,0.1721,0.1765,0.1809,0.1792,0.1895,0.1844,0.1759,0.175,0.1803,0.179,0.1921,0.1921,0.192,0.192,0.192,0,0.1302,0.1322,0.1382,0.1391,0.1416,0.1445,0.1475,0.151,0.1557,0.1577,0.1639,0.1673,0.1759,0.1808,0.1833,0.1837,0.1908,0.1799,0.1766,0.1838,0.1829,0.1812,0.1798,0.1923,0.1922,0.1922,0.1921,0,0.1259,0.13,0.1328,0.1383,0.1404,0.1426,0.1479,0.1491,0.1562,0.16,0.1629,0.1708,0.1778,0.1837,0.191,0.1857,0.1866,0.1852,0.1956,0.1922,0.1708,0.1698,0.1754,0.175,0.1747,0.1745,0.1742,0,0.1233,0.1248,0.1321,0.1341,0.1374,0.1414,0.1431,0.1494,0.1505,0.16,0.1603,0.1707,0.175,0.1755,0.1826,0.1855,0.1838,0.1824,0.1757,0.1732,0.1694,0.1689,0.1684,0.1737,0.1736,0.1736,0.1735,0,0.1184,0.1229,0.1254,0.13,0.1333,0.1344,0.138,0.1376,0.1442,0.1531,0.1542,0.1565,0.1642,0.1684,0.1732,0.1742,0.181,0.179,0.1796,0.1733,0.1712,0.1676,0.1675,0.1724,0.1725,0.1726,0.1727,0,0.1157,0.1165,0.1212,0.1235,0.1273,0.1251,0.1277,0.1283,0.1302,0.1404,0.1413,0.152,0.1627,0.1627,0.1659,0.1669,0.1639,0.1565,0.1582,0.1595,0.1505,0.1453,0.1378,0,0,0,0,0,0.1117,0.1113,0.1136,0.1141,0.1171,0.1188,0.1224,0.1247,0.1319,0.1294,0.1344,0.1401,0.1443,0.1494,0.1476,0.1592,0.1649,0.156,0.1574,0.1662,0.1675,0.1581,0,0,0,0,0,0,0.1088,0.1113,0.1109,0.1055,0.1043,0.1049,0.1068,0.1118,0.1096,0.1194,0.1231,0.1312,0.1386,0.1459,0.1454,0.1471,0.1445,0.1633,0.1629,0.1655,0.1666,0.1677,0.1585,0,0,0,0,0]},{"header":{"parameterUnit":"m.s-1","parameterCategory":2,"la1":30.2991,"la2":30.254,"lo1":-89.0895,"lo2":-89.0444,"dy":0.0017,"dx":0.0017,"nx":28,"ny":28,"refTime":"2024-05-27T09:00:00:Z","depth":"4","parameterNumber":3,"parameterNumberName":"V-component_of_CURRENTS"},"data":[0,0,0,0,0,0,0,0,0,0,0,0,0,0,0,0,0,0,0,0,0,0,0,0,0,0,0,0,0,0,0,0,0,0,0,0,0,0,0,0,0,0,0,0,0,0,0,0,0,0,0,0,0,0,0,0,0,0,0.0131,0.0131,0,0.0121,0.0121,0.0121,0.0109,0.0108,0.0108,0.0108,0.0164,0.0165,0.0167,0,0,0,0,0,0,0,0,0,0,0,0,0,0.0132,0.0132,0.0131,0.0131,0.0131,0.0121,0.0121,0.0121,0.0109,0.0108,0.0108,0.0108,0.0163,0.0165,0.0167,0,0,0,0,0,0,0,0,0,0,0,0,0,0.0129,0.0132,0.0131,0.0123,0.0122,0.0121,0.0121,0.0121,0.0109,0.0108,0.0108,0.0108,0.0162,0.0165,0.0168,0.0192,0,0,0.0176,0.0177,0,0,0,0,0,0,0,0,0.0129,0.0129,0.0124,0.0123,0.0122,0.0115,0.0141,0.0147,0.0109,0.0115,0.0108,0.0107,0.0153,0.0156,0.0156,0.0195,0.0197,0.0176,0.0177,0.0178,0.0179,0,0,0,0,0,0,0,0.0129,0.0129,0.0128,0.0124,0.0123,0.0116,0.0116,0.0142,0.0139,0.0115,0.0113,0.011,0.0153,0.0153,0.0157,0.0198,0.0176,0.0178,0.018,0.0181,0.0301,0.0303,0,0,0,0,0,0,0.0129,0.0129,0.0129,0.0128,0.0123,0.0117,0.0116,0.0119,0.0137,0.0138,0.0111,0.011,0.0149,0.0154,0.0159,0.0212,0.0178,0.0181,0.0182,0.03,0.0302,0.0303,0,0,0,0,0,0,0.0129,0.0129,0.0129,0.0127,0.0126,0.0117,0.012,0.0118,0.012,0.0133,0.0136,0.0114,0.0149,0.0156,0.0196,0.0214,0.0182,0.0184,0.0298,0.03,0.0302,0.0304,0,0,0,0,0,0,0.0129,0.013,0.0135,0.0127,0.0126,0.0134,0.012,0.0119,0.0118,0.0117,0.0137,0.0141,0.0149,0.0192,0.0199,0.0217,0.0187,0.0296,0.0299,0.0302,0.0302,0.0306,0.031,0,0,0,0,0,0.013,0.014,0.0135,0.0135,0.0133,0.0135,0.0134,0.0126,0.0119,0.0125,0.0144,0.0141,0.0216,0.0196,0.0203,0.0222,0.0294,0.0298,0.0301,0.03,0.0305,0.031,0,0,0,0,0,0,0.0143,0.0139,0.0134,0.0143,0.014,0.0132,0.0138,0.013,0.0147,0.0151,0.016,0.0167,0.0209,0.0222,0.0199,0.0269,0.0256,0.0261,0.0252,0.0257,0.0261,0.026,0.0189,0,0,0,0,0,0.0148,0.0156,0.0148,0.0156,0.0156,0.0147,0.0147,0.0143,0.0153,0.0158,0.0171,0.0197,0.023,0.0248,0.0275,0.0314,0.0299,0.0334,0.0338,0.0341,0.0348,0.0331,0.0333,0.0315,0.0315,0.0315,0,0,0.0154,0.0154,0.0158,0.0159,0.0158,0.0168,0.0147,0.0152,0.0167,0.0166,0.0196,0.0211,0.0244,0.0285,0.0305,0.0298,0.0339,0.0346,0.0348,0.0353,0.0335,0.0336,0.0337,0.0318,0.0317,0.0317,0,0,0.0172,0.0172,0.0185,0.0187,0.0186,0.0186,0.0188,0.0185,0.019,0.022,0.0226,0.0252,0.0297,0.0319,0.0339,0.0386,0.0359,0.0398,0.0416,0.04,0.04,0.04,0.0373,0.0371,0.04,0.04,0.04,0,0.0179,0.0195,0.0188,0.0201,0.0209,0.0196,0.0214,0.0221,0.0232,0.0247,0.0236,0.0297,0.0315,0.0368,0.0382,0.0394,0.0372,0.0389,0.0401,0.0401,0.0401,0.0373,0.0371,0.0401,0.0401,0.0401,0.0401,0,0.0205,0.022,0.0229,0.0244,0.0253,0.0266,0.0272,0.0286,0.029,0.0294,0.0336,0.0351,0.0387,0.0396,0.0404,0.0427,0.0406,0.0401,0.0378,0.0402,0.0372,0.037,0.0401,0.0401,0.0401,0.0401,0,0,0.0217,0.0242,0.0246,0.0264,0.0278,0.029,0.0322,0.0348,0.0374,0.0377,0.0407,0.0447,0.0438,0.0461,0.0465,0.045,0.0424,0.0425,0.0423,0.0379,0.0372,0.0349,0.0343,0.0408,0.0408,0.0408,0.0346,0,0.0241,0.0276,0.0284,0.0326,0.0346,0.0353,0.0387,0.0409,0.0424,0.0449,0.0455,0.0488,0.0469,0.0484,0.0466,0.0442,0.0419,0.0441,0.0373,0.0371,0.0331,0.034,0.0408,0.0344,0.0343,0.0343,0.0342,0,0.0265,0.0288,0.033,0.0374,0.0385,0.0411,0.0462,0.0489,0.0519,0.0531,0.0547,0.0543,0.0546,0.0516,0.0467,0.0477,0.0428,0.0394,0.039,0.0368,0.0343,0.0321,0.0337,0.0337,0.0338,0.0338,0.0338,0,0.0282,0.0324,0.0363,0.0376,0.042,0.045,0.0478,0.0516,0.0552,0.058,0.06,0.0591,0.0594,0.0532,0.0463,0.0461,0.0386,0.0376,0.0308,0.0305,0.034,0.0341,0.0331,0.0331,0.0331,0.0332,0.0332,0,0.0306,0.0338,0.0376,0.0398,0.0455,0.0476,0.054,0.0566,0.0609,0.0657,0.0642,0.0662,0.0594,0.0546,0.0471,0.0379,0.0391,0.0312,0.029,0.0343,0.0345,0.0337,0.0338,0.0329,0.033,0.033,0.0331,0,0.0319,0.0341,0.039,0.0442,0.0465,0.0506,0.0579,0.0625,0.0657,0.0716,0.0726,0.0712,0.0651,0.057,0.047,0.0397,0.0308,0.0271,0.0328,0.0311,0.0233,0.0236,0.019,0.0189,0.0188,0.0187,0.0186,0,0.0328,0.0354,0.042,0.0453,0.048,0.0544,0.0595,0.0648,0.0697,0.0745,0.0772,0.0736,0.0712,0.0551,0.0456,0.0307,0.0285,0.0225,0.0235,0.0236,0.022,0.0224,0.0228,0.0184,0.0184,0.0184,0.0183,0,0.0346,0.037,0.041,0.0477,0.0534,0.0602,0.0673,0.071,0.0775,0.0802,0.0809,0.0741,0.0671,0.0549,0.0433,0.0327,0.0257,0.0213,0.0215,0.0224,0.0228,0.0214,0.022,0.018,0.018,0.018,0.0181,0,0.036,0.0386,0.0439,0.0499,0.057,0.0641,0.0679,0.0735,0.0783,0.0833,0.0827,0.0759,0.0722,0.0558,0.0451,0.0345,0.0316,0.0266,0.0265,0.0267,0.0307,0.0326,0.0289,0,0,0,0,0,0.037,0.0401,0.0457,0.0526,0.0597,0.0643,0.0726,0.0761,0.0818,0.0827,0.0832,0.0767,0.0621,0.0557,0.0447,0.0422,0.029,0.0287,0.023,0.0159,0.0163,0.0195,0,0,0,0,0,0,0.0376,0.0426,0.0454,0.0539,0.0589,0.0676,0.0731,0.0771,0.0776,0.0808,0.0733,0.0716,0.0574,0.0684,0.0437,0.0407,0.0349,0.0227,0.0224,0.0157,0.016,0.0164,0.0198,0,0,0,0,0]}]]